Hourly Data Report for October 23, 2016

All times are specified in Local Standard Time (LST). Add 1 hour to adjust for Daylight Saving Time where and when it is observed.

RESOLUTE BAY A
NUNAVUT

74°43'01.000" N
94°58'10.000" W
67.70 m
2403498
71924
YRB

Download Data

Hourly Data (October 2016)
Hourly Data Report for October 23, 2016
Temp Definition
°C
Dew Point Temp Definition
°C
Rel Hum Definition
%
Wind Dir Definition
10's deg

Wind Spd Definition
km/h
Visibility Definition
km
Stn Press Definition
kPa
Hmdx Definition


Wind Chill Definition


Weather Definition


TIME
00:00 Legend Double Dagger -8.6 -10.5 86 21 51 1.0 101.71   -20 Snow,Blowing Snow
01:00 Legend Double Dagger -8.6 -10.5 86 22 48 1.0 101.74   -20 Snow,Blowing Snow
02:00 Legend Double Dagger -8.6 -10.5 86 21 41 8.1 101.80   -19 Snow,Blowing Snow
03:00 Legend Double Dagger -8.3 -10.1 87 22 37 8.1 101.79   -18 Snow,Blowing Snow
04:00 Legend Double Dagger -8.4 -10.3 86 22 34 9.7 101.82   -18 Snow,Blowing Snow
05:00 Legend Double Dagger -8.1 -10.0 86 20 40 9.7 101.85   -18 Snow,Blowing Snow
06:00 Legend Double Dagger -8.0 -9.8 87 20 31 11.3 101.88   -17 Snow,Blowing Snow
07:00 Legend Double Dagger -7.7 -9.7 86 20 40 12.9 101.85   -18 Snow,Blowing Snow
08:00 Legend Double Dagger -7.4 -8.9 89 21 38 6.4 101.88   -17 Snow,Blowing Snow
09:00 Legend Double Dagger -7.5 -9.3 87 23 40 12.9 101.90   -17 Snow,Blowing Snow
10:00 Legend Double Dagger -7.2 -8.9 88 21 35 6.4 101.95   -16 Snow,Blowing Snow
11:00 Legend Double Dagger -7.3 -9.1 87 21 30 4.8 101.97   -16 Snow,Blowing Snow
12:00 Legend Double Dagger -7.7 -9.5 87 22 32 12.9 101.96   -17 Snow,Blowing Snow
13:00 Legend Double Dagger -7.6 -9.6 86 21 30 16.1 101.98   -16 Snow,Blowing Snow
14:00 Legend Double Dagger -7.2 -8.9 88 22 25 12.9 102.03   -15 Snow,Blowing Snow
15:00 Legend Double Dagger -7.1 -8.6 89 21 27 24.1 102.03   -15 Snow,Blowing Snow
16:00 Legend Double Dagger -7.1 -8.3 91 22 36 6.4 102.02   -16 Snow,Fog,Blowing Snow
17:00 Legend Double Dagger -7.0 -8.2 91 20 21 16.1 102.02   -14 Snow,Blowing Snow
18:00 Legend Double Dagger -6.9 -8.1 91 20 32 6.4 102.00   -16 Snow,Fog,Blowing Snow
19:00 Legend Double Dagger -7.2 -8.4 91 18 30 4.0 102.01   -16 Snow,Fog,Blowing Snow
20:00 Legend Double Dagger -7.1 -8.6 89 20 24 4.0 101.98   -15 Snow,Fog
21:00 Legend Double Dagger -7.3 -9.0 88 22 20 4.0 101.94   -14 Snow,Fog
22:00 Legend Double Dagger -7.4 -8.9 89 22 15 4.0 101.93   -14 Snow,Fog
23:00 Legend Double Dagger -7.5 -9.0 89 22 8 4.8 101.92   -12 Snow,Fog

Notes on Data Quality.

Legend

  • E = Estimated
  • M = Missing
  • NA = Not Available
  • ‡ = Partner data that is not subject to review by the National Climate Archives
Date modified: